Theta_e
325 321 324 326 325 323 321 319 322 321 320 324 335 339 341 341 341 342 342 342 343 343 340 343 341 343 347 352 352 351 352 352 352 351 351 352 351 349 349 348 342 336 338 337
330 328 328 325 324 324 324 323 321 326 327 326 338 337 338 337 342 341 340 344 344 346 344 344 345 343 344 348 353 353 353 354 353 353 353 352 353 353 353 349 346 344 339 337
333 331 331 328 324 324 325 327 327 327 325 330 342 340 338 336 338 341 345 347 346 344 342 349 347 346 347 350 353 354 354 355 353 350 351 350 350 350 349 349 348 346 342 342
333 330 334 325 327 328 325 326 327 329 329 327 335 339 336 335 337 344 346 335 333 333 334 337 347 349 351 352 353 353 348 347 345 343 341 339 339 337 337 339 339 341 343 343
330 332 329 331 332 332 332 331 330 331 335 337 339 339 343 342 338 339 339 329 332 330 328 331 335 345 350 350 346 344 336 336 336 336 333 330 327 325 324 323 322 323 324 325
329 334 336 328 331 331 328 331 330 331 342 342 339 340 337 341 337 337 332 330 330 332 332 336 347 347 345 340 335 331 329 327 327 326 323 322 320 320 319 319 319 319 319 319
324 329 328 331 333 332 332 330 327 332 335 342 339 335 334 340 336 335 338 339 338 342 345 346 345 342 337 334 330 327 325 324 322 321 320 319 318 317 317 317 317 316 315 316
324 328 330 330 334 332 328 328 328 331 338 338 338 337 337 337 336 336 335 342 346 344 343 343 342 341 334 331 327 325 322 320 319 318 317 316 316 315 315 315 312 312 314 314
330 329 323 330 332 331 329 329 329 329 333 335 336 338 336 336 337 336 335 343 343 342 341 340 338 340 333 328 326 322 319 318 318 317 316 315 314 314 314 314 313 314 313 314
326 323 329 329 327 331 329 329 330 331 333 338 338 339 339 338 337 334 338 340 340 340 339 338 338 337 337 328 323 320 319 317 317 316 314 314 315 315 315 313 314 316 314 313
324 325 327 330 332 331 330 331 332 334 334 335 341 341 341 338 335 335 338 340 340 339 338 337 337 335 332 327 323 320 319 317 316 315 314 314 316 316 315 314 315 314 313 313
325 324 326 326 326 329 330 332 331 332 332 332 333 339 339 337 336 337 337 338 337 337 337 336 335 331 329 326 323 320 318 317 316 316 315 316 316 316 316 316 316 316 316 315
325 327 330 328 328 328 330 331 332 331 331 332 334 334 338 336 335 338 335 335 335 336 336 336 333 328 327 323 322 319 319 317 317 316 316 317 316 316 316 316 316 316 316 316
321 324 327 328 329 328 329 330 330 331 331 331 336 336 337 334 334 334 335 335 336 336 336 336 333 330 329 323 320 319 319 318 317 317 317 317 316 315 315 316 316 316 316 316
318 320 323 324 327 329 330 330 330 332 332 331 336 335 334 333 332 333 336 337 337 335 333 335 335 332 330 324 321 320 320 318 318 317 317 317 316 315 316 315 314 315 316 317
324 325 327 328 328 328 329 330 331 332 332 332 335 332 333 333 332 333 334 335 333 331 332 333 335 334 332 327 324 322 321 321 319 318 317 317 315 315 315 315 316 316 315 315
326 328 326 327 328 328 328 329 331 331 332 333 334 333 332 331 331 332 333 333 333 333 333 333 334 335 334 332 329 326 324 322 320 318 318 318 317 317 317 316 316 315 315 315
326 326 325 325 327 328 328 329 331 331 330 333 334 333 333 331 330 330 332 333 333 333 333 333 335 335 335 334 333 330 327 325 323 321 321 320 319 319 319 318 316 314 314 315
328 328 329 326 325 326 327 327 331 330 329 332 333 332 333 333 332 332 333 331 330 330 332 334 335 336 335 336 334 330 327 326 325 324 324 323 321 321 321 320 319 316 314 314
328 329 327 325 325 325 325 326 328 330 329 330 333 333 332 332 332 333 332 330 331 332 332 331 333 336 336 335 334 331 330 328 327 326 325 323 321 322 322 321 320 320 318 314
327 328 327 324 325 327 327 328 327 330 331 330 330 332 332 332 332 332 331 329 332 333 334 333 332 332 335 335 333 332 331 330 329 328 326 324 323 323 323 323 322 320 317 317
325 325 327 324 325 325 328 329 329 327 331 329 329 332 332 331 331 332 333 333 334 334 334 334 333 332 334 335 334 333 333 332 329 327 327 325 324 324 324 324 325 324 320 316
321 323 326 326 325 327 330 328 328 328 327 329 331 332 331 331 331 329 328 333 333 333 334 333 332 333 333 334 334 333 332 331 331 331 328 327 326 325 324 324 324 323 321 319
323 325 326 326 325 329 331 328 329 330 331 333 333 334 332 329 331 333 333 334 332 330 331 331 330 331 332 334 334 333 332 332 330 327 324 324 322 320 321 322 321 318 317 317
324 326 324 322 325 328 331 330 328 327 331 333 333 333 332 331 332 332 331 332 332 332 332 332 331 330 331 331 330 329 329 327 326 326 324 322 321 321 321 320 320 318 318 318
323 325 326 326 325 325 327 326 326 327 328 328 331 334 333 332 332 332 331 330 330 330 330 329 330 329 328 328 326 326 326 328 327 326 325 323 321 320 320 321 321 320 319 319
325 326 326 326 326 326 326 329 328 328 330 331 331 334 333 332 331 331 331 330 330 329 329 330 330 330 329 330 329 330 329 328 326 324 324 324 323 323 322 320 320 320 320 320
Wind_Speed
7 8 4 3 5 6 5 6 5 6 9 9 10 11 6 7 8 8 10 6 6 5 4 2 12 14 19 23 27 30 31 31 32 32 31 30 25 24 21 23 23 31 34 33
4 4 2 6 8 6 5 5 4 3 6 7 4 5 6 7 8 11 6 7 7 7 6 4 12 23 28 25 28 29 28 26 29 25 23 21 17 17 16 19 24 30 36 36
5 5 6 4 6 6 3 4 6 5 9 3 3 6 8 10 7 8 7 7 8 8 8 6 16 24 28 29 25 23 20 19 16 20 12 11 8 7 5 6 18 31 37 34
4 4 6 5 4 5 7 5 6 4 5 8 9 2 6 6 8 7 8 7 6 5 12 22 12 14 20 24 21 20 17 15 16 17 17 12 7 5 3 4 7 11 16 20
4 4 6 5 2 2 1 3 2 2 4 4 6 5 1 7 8 8 6 7 7 5 4 6 6 4 18 21 23 25 24 20 17 14 13 9 5 3 4 6 8 11 17 23
2 5 5 6 6 9 2 4 2 4 5 5 6 4 6 14 9 7 10 10 13 16 18 7 7 12 25 26 28 25 22 20 17 13 11 11 9 8 8 9 11 15 20 22
5 4 6 5 11 6 4 5 10 3 6 8 6 6 2 14 9 8 14 14 16 16 18 18 22 23 22 25 24 26 23 20 17 14 14 12 12 12 12 14 16 19 22 24
1 2 7 4 6 2 4 8 5 6 4 11 14 2 6 14 15 14 11 15 21 18 16 21 28 30 23 23 25 23 22 22 19 16 16 15 15 16 18 19 19 17 24 27
6 5 3 3 4 3 2 7 7 8 8 11 12 7 8 12 14 13 12 15 20 21 19 19 22 27 26 26 26 25 23 22 20 19 17 17 19 19 20 21 19 22 22 23
3 4 3 6 6 2 3 6 10 9 7 6 6 6 7 8 9 9 12 15 19 21 17 18 23 27 30 30 27 26 25 22 20 18 18 17 17 16 15 20 17 22 23 23
5 8 8 4 3 3 6 6 8 9 6 7 4 8 7 5 8 9 12 18 22 20 18 19 23 24 29 29 26 24 24 22 19 17 18 16 15 16 16 14 15 17 19 21
6 7 5 7 5 3 4 4 7 7 12 7 4 8 10 8 5 10 14 18 17 19 21 23 24 25 27 27 26 27 26 23 20 18 15 13 13 12 13 13 13 13 16 19
8 3 7 11 8 5 4 5 3 5 5 10 7 7 5 6 10 14 15 17 18 22 22 25 22 25 29 29 28 28 29 25 21 17 14 12 11 10 11 13 16 17 19 22
9 5 6 10 8 4 4 6 5 5 4 6 11 13 8 7 13 15 14 19 23 25 23 24 22 23 27 27 28 26 25 24 22 17 15 12 11 10 8 11 14 20 22 20
15 10 14 7 4 7 5 4 3 3 2 6 2 6 12 9 10 13 18 21 22 22 22 25 23 23 31 31 29 27 25 23 20 18 15 12 10 8 4 3 7 13 17 19
6 6 9 11 14 9 7 4 4 3 1 4 5 6 8 8 16 19 19 20 19 15 22 24 25 28 32 31 28 25 23 22 21 19 16 13 11 8 6 6 7 8 11 13
6 7 7 9 13 10 9 6 6 3 2 5 6 13 14 15 14 14 16 20 22 21 21 22 23 26 30 30 28 25 23 21 20 20 18 18 15 13 9 8 8 5 3 4
9 11 11 10 9 11 8 7 9 6 4 2 7 12 11 11 11 16 20 20 16 14 17 18 19 22 29 30 28 26 25 23 22 22 21 19 19 17 14 12 8 6 2 1
11 11 10 8 8 8 5 3 6 11 13 15 15 8 9 12 16 22 22 18 15 13 15 14 16 23 27 31 28 28 27 25 23 22 21 21 20 19 18 16 13 10 7 4
12 10 7 5 7 7 7 10 9 13 13 13 16 16 10 13 15 21 22 19 21 18 17 17 18 21 24 26 28 27 27 25 24 24 22 22 23 22 21 19 17 16 13 12
8 7 4 6 5 7 11 14 10 11 15 11 11 10 13 13 17 22 16 8 17 15 13 17 21 23 24 26 28 28 26 24 23 23 23 25 25 24 23 23 22 20 18 18
5 6 4 5 6 6 11 15 18 11 16 14 11 8 13 15 19 22 24 21 17 16 16 19 22 24 25 25 27 27 23 20 19 20 24 26 27 28 28 27 27 26 25 22
6 5 6 3 6 5 5 7 18 15 10 12 16 15 17 20 25 16 5 20 16 19 20 20 19 23 26 26 25 23 23 22 22 24 26 28 30 31 32 31 30 29 28 28
5 7 7 5 17 3 2 9 10 11 11 16 12 11 18 18 21 23 22 20 19 19 21 19 16 18 25 28 28 23 24 26 25 27 27 26 24 22 26 31 29 28 29 29
10 8 8 9 7 0 9 3 5 10 9 7 15 22 25 27 25 25 17 16 20 18 17 15 18 19 23 25 24 24 26 27 27 26 26 26 23 19 21 26 30 30 30 30
7 5 4 8 9 9 8 3 2 4 6 3 7 17 17 17 16 16 19 18 19 19 16 14 15 20 23 25 26 27 27 27 23 23 24 22 21 20 18 18 24 30 30 29
11 11 7 13 12 8 8 4 7 2 4 6 6 10 14 14 14 14 15 15 14 12 11 13 15 19 21 23 25 27 28 28 28 27 26 25 23 23 22 21 21 21 24 29
Wind_Direction
277 257 257 237 243 178 153 180 161 257 193 245 237 225 171 172 161 179 195 139 103 80 52 176 180 195 201 198 203 208 216 220 228 234 239 244 253 256 249 246 259 263 263 268
277 298 301 244 246 244 216 147 231 176 270 242 154 105 148 161 187 191 148 127 106 103 112 140 202 204 204 206 207 207 213 220 227 228 230 244 258 261 251 245 244 241 249 259
263 316 313 289 233 217 201 190 158 163 230 242 196 193 195 198 180 176 147 134 139 151 140 102 199 206 197 199 198 194 200 219 214 231 160 157 160 152 151 197 240 246 245 260
247 332 238 239 268 229 224 230 199 159 228 217 226 184 80 105 147 161 155 144 156 193 175 161 127 203 187 181 176 179 165 146 128 124 118 122 123 112 147 235 250 251 250 250
188 218 289 335 336 86 42 278 103 315 267 238 121 73 27 170 159 182 161 179 158 136 28 314 62 112 171 150 145 145 131 130 120 117 112 104 90 39 342 319 302 286 280 277
142 190 216 232 331 351 289 283 234 152 184 205 135 147 237 183 151 141 159 183 168 132 134 143 6 182 141 135 130 123 122 115 109 100 95 87 74 56 31 6 339 324 313 303
219 235 284 317 294 284 179 250 325 286 177 190 226 188 216 142 139 153 168 178 169 162 170 180 172 170 123 124 118 125 121 112 104 100 95 89 82 63 42 24 7 356 340 326
180 212 258 303 349 45 287 290 291 308 278 207 249 258 163 143 144 160 154 156 152 151 154 154 156 147 128 118 132 129 123 116 113 106 99 88 78 63 47 34 21 2 354 342
185 228 234 335 242 241 255 281 320 311 302 247 213 216 172 158 158 163 153 147 145 142 140 151 145 146 129 142 144 136 130 120 113 105 93 80 69 57 43 33 18 6 350 334
22 290 255 229 279 273 326 319 311 290 315 274 179 173 173 142 145 149 137 138 143 141 142 149 158 153 151 154 153 145 131 121 115 106 94 80 68 58 45 33 16 9 352 336
258 288 297 311 199 277 314 343 331 337 335 327 335 118 122 127 149 146 138 143 153 157 157 154 162 156 157 157 156 141 128 125 121 114 104 97 79 62 50 34 19 7 358 349
238 242 226 264 262 238 318 341 320 341 339 332 8 275 142 138 140 140 140 154 157 159 153 154 161 163 164 164 162 150 138 140 140 132 125 105 87 76 59 42 36 20 14 11
238 224 231 261 281 245 220 232 264 295 300 313 324 265 233 126 155 146 146 154 159 166 163 159 156 160 169 169 167 159 150 152 149 145 131 120 112 90 66 50 45 34 27 24
244 243 264 248 252 270 175 229 219 250 286 282 255 244 209 133 130 142 157 168 174 176 173 168 162 168 177 174 171 164 159 158 157 152 143 139 129 115 92 54 29 23 33 27
262 237 238 260 260 267 228 207 221 234 246 309 231 162 146 153 146 152 171 172 177 180 184 179 168 171 184 181 176 173 168 167 165 161 155 152 152 153 143 29 8 4 13 22
288 257 254 252 254 242 261 236 204 220 52 296 188 129 130 156 141 161 170 174 172 183 186 182 180 178 187 185 181 179 180 178 176 172 174 181 186 191 223 273 317 351 353 17
262 272 254 249 248 245 217 207 198 186 358 304 134 145 147 145 145 149 174 186 194 196 197 194 189 188 192 192 187 188 188 187 188 187 193 203 212 228 240 257 277 294 333 22
255 250 244 232 222 229 232 201 174 166 141 83 147 148 150 158 169 168 185 188 189 195 196 196 195 194 196 195 198 200 198 196 195 199 206 214 225 233 244 248 255 258 235 86
297 266 250 229 222 235 241 256 181 159 146 112 132 149 172 190 184 174 184 183 186 183 193 190 193 198 197 197 200 203 203 201 202 205 215 222 229 234 240 241 245 252 243 214
310 311 250 183 181 225 243 246 191 169 168 127 125 136 167 185 197 175 187 187 198 202 201 201 197 197 201 198 202 206 208 209 210 213 218 223 229 231 234 239 246 251 250 243
303 308 221 187 205 224 248 258 236 207 186 190 128 150 167 183 199 184 173 192 207 205 208 206 207 206 205 206 205 209 211 211 215 220 223 226 231 237 242 245 246 249 250 243
293 300 265 185 180 202 236 252 260 224 199 191 198 132 142 175 194 195 198 199 202 200 204 204 209 209 206 207 207 209 209 211 219 224 228 231 235 239 243 249 251 247 245 245
303 283 266 225 184 215 275 276 209 204 196 191 176 177 182 188 192 176 194 210 204 198 206 208 209 209 206 204 210 210 208 214 225 235 238 243 246 248 247 248 252 251 245 238
311 327 317 211 165 179 116 43 111 166 194 211 190 202 186 178 197 200 206 199 199 204 212 218 211 207 207 210 210 220 223 226 234 239 245 243 259 265 248 245 246 247 250 248
323 321 351 128 127 223 77 47 35 102 119 186 214 213 206 200 192 200 197 197 200 200 208 220 214 208 204 207 215 222 224 230 236 239 241 240 249 264 256 243 241 242 248 250
353 335 21 122 163 175 220 287 263 269 143 133 174 179 191 200 202 198 197 195 202 207 208 213 214 216 219 223 227 231 235 240 247 243 241 243 244 250 259 255 249 245 247 250
27 37 31 75 94 142 157 135 125 126 156 158 154 181 182 184 185 185 184 184 190 192 203 215 220 225 230 234 237 242 244 244 244 247 248 250 253 258 260 260 259 263 255 251